Regional Weather Roundup
Issued by NWS

Home | Current Version | Previous Version | Graphics & Text | Print | Product List | Glossary On
Versions: 1 2 3 4 5 6 7 8 9 10 11 12 13 14 15 16 17 18 19 20 21 22 23 24 25 26 27 28 29 30 31 32 33 34 35 36 37 38 39 40 41 42 43 44 45 46 47 48 49 50
000
ASUS43 KTOP 182259
RWRKS

WEATHER ROUNDUP FOR KANSAS
NATIONAL WEATHER SERVICE GOODLAND KS
600 PM CDT MON SEP 18 2017

NOTE:  "FAIR" INDICATES FEW OR NO CLOUDS BELOW 12,000 FEET WITH NO
SIGNIFICANT WEATHER AND/OR OBSTRUCTIONS TO VISIBILITY.

KSZ001>006-013>018-027>032-041>047-190000-
NORTHWEST KANSAS

CITY           SKY/WX    TMP DP  RH WIND       PRES   REMARKS
GOODLAND       SUNNY     83  44  25 E7        29.90F
HAYS           SUNNY     87  59  38 SW9       29.84S
HILL CITY      SUNNY     86  56  35 CALM      29.84F
RUSSELL        MOSUNNY   88  58  36 S10       29.82F
$$

KSZ061>065-074>080-084>089-190000-
SOUTHWEST KANSAS

CITY           SKY/WX    TMP DP  RH WIND       PRES   REMARKS
DODGE CITY     SUNNY     85  57  38 SW14      29.88F
ELKHART          N/A     83  57  41 S6          N/A
GARDEN CITY    SUNNY     86  52  30 S9        29.88S
GREAT BEND     MOSUNNY   88  60  38 SW12      29.85S
LIBERAL        SUNNY     84  61  45 S10       29.91F
$$

KSZ066>073-081>083-090>101-190000-
SOUTHEAST KANSAS

CITY           SKY/WX    TMP DP  RH WIND       PRES   REMARKS
CHANUTE        SUNNY     80  65  59 S10       29.92F
COFFEYVILLE    SUNNY     83  67  58 S6        29.91F
HUTCHINSON     SUNNY     85  63  47 S14       29.86S
MEDICINE LODGE   N/A     86  63  45 SW8       29.86F
NEWTON         MOSUNNY   83  63  50 S16       29.89F
WICHITA INTL   MOSUNNY   86  63  45 S14       29.87F
WICHITA JABRA  SUNNY     83  64  52 S9        29.88F
WINFIELD       SUNNY     83  64  52 S9        29.91F
$$

KSZ007>012-019>026-033>040-048>060-102>105-190000-
NORTHEAST KANSAS

CITY           SKY/WX    TMP DP  RH WIND       PRES   REMARKS
CONCORDIA      MOSUNNY   79  69  71 E8        29.87R
EMPORIA        SUNNY     81  66  60 SE12      29.89F
LAWRENCE       MOSUNNY   76  69  79 SE6       29.91S
MANHATTAN      SUNNY     81  67  62 SE7       29.86F
OLATHE IND     PTSUNNY   74  67  78 S7        29.93R
OLATHE EXE     MOSUNNY   74  68  81 VRB6      29.92S
SALINA         LGT RAIN  85  64  49 SE16      29.84F
TOPEKA BILLARD MOSUNNY   78  69  73 S7        29.90S
$$




USA.gov is the U.S. government's official web portal to all federal, state and local government web resources and services.